Vertical_Velocity
-1 -2 -2 1 2 1 -2 -0 1 1 -3 -5 -7 -8 -6 -5 -4 -3 -1 -0 -1 -3 -3 -2 0 2 1 -1 -2 -3 -4 -3 -2 -1 0 1 1 1 0 0 0 0 1 1 1 1 0 -1 -1 -1 -1 -1 1 4 8 9 8 7 6 6 7 8 11 9 8 8 9 5 2 0 -1 -1 -1 -1 -1 -0 -0 -1 -1 -2 -2 -2 -2 -2 -1 -1
-6 -7 -8 -5 -3 -3 -6 -4 -1 2 1 -2 -4 -5 -5 -7 -9 -9 -7 -5 -4 -4 -4 -4 -2 0 1 0 -1 -1 -3 -4 -3 -2 -0 1 1 2 1 1 0 0 0 1 1 1 0 -0 -1 -1 -1 -1 0 3 7 7 7 8 7 5 5 6 9 10 10 9 8 5 2 1 0 -1 -1 -1 -1 -1 -1 -2 -2 -2 -2 -2 -2 -2 -2 -1
-4 -7 -8 -6 -5 -5 -7 -7 -4 1 4 3 2 1 2 -0 -3 -6 -7 -7 -6 -5 -5 -5 -4 -2 -1 -0 0 -0 -2 -3 -3 -3 -1 1 2 2 2 1 1 0 0 0 0 0 0 0 -0 -1 -1 -1 -1 0 2 4 7 9 10 8 7 7 8 9 9 8 4 2 1 1 0 -0 -0 -0 -0 -1 -1 -2 -2 -2 -2 -2 -2 -2 -2 -1
-1 -4 -5 -4 -4 -5 -5 -6 -6 -4 -0 0 2 4 6 6 4 1 -1 -1 -1 -3 -4 -5 -4 -4 -4 -3 -2 -1 -1 -2 -3 -3 -2 -0 1 3 3 2 1 0 -0 -0 -0 -0 -0 -0 -0 -0 -1 -1 -1 -1 -1 1 3 6 8 9 9 8 7 8 9 7 3 1 1 1 0 -0 -0 0 0 -0 -1 -1 -1 -1 -2 -2 -2 -2 -2 -2
-0 -1 -1 -2 -5 -7 -5 -5 -5 -5 -4 -4 -3 -1 2 3 4 4 4 4 4 3 1 -1 -2 -4 -6 -5 -4 -3 -2 -3 -4 -4 -4 -2 -0 1 3 3 2 1 -0 -1 -1 -1 -1 -1 -1 -1 -0 -1 -1 -2 -2 -1 -0 1 2 5 7 8 7 7 7 7 5 2 1 0 0 0 0 1 1 1 0 -0 -1 -1 -2 -2 -2 -2 -2 -2
-2 0 2 -0 -3 -5 -4 -4 -4 -3 -4 -7 -7 -5 -4 -2 -0 2 2 3 4 4 4 4 2 0 -2 -4 -4 -3 -2 -3 -4 -4 -5 -4 -3 -1 1 2 2 2 0 -1 -1 -2 -2 -2 -2 -1 -1 -1 -1 -2 -2 -2 -2 -2 -2 -0 2 5 6 7 7 6 5 3 1 0 1 0 0 1 1 1 1 -0 -1 -1 -2 -2 -3 -3 -2 -2
-5 -1 3 0 -1 -2 -3 -4 -2 -0 -2 -6 -8 -8 -9 -6 -4 -3 -2 1 2 3 3 4 4 3 1 -0 -1 -1 -1 -1 -2 -3 -4 -5 -5 -3 -0 1 2 2 1 0 -1 -1 -2 -2 -2 -2 -1 -2 -2 -2 -2 -3 -3 -3 -4 -3 -2 -0 2 5 6 7 6 4 2 1 1 1 0 0 1 1 1 -0 -0 -1 -1 -2 -3 -3 -3 -2
-6 -4 2 0 -1 -3 -4 -5 -3 -1 -0 -2 -4 -7 -10 -9 -8 -7 -5 -3 -1 1 2 2 2 1 1 -0 -0 -0 0 0 -0 -1 -3 -4 -4 -3 -1 1 2 2 2 1 1 -0 -1 -0 -0 -0 -0 -1 -2 -2 -3 -3 -3 -3 -3 -3 -3 -3 -1 2 4 5 5 4 2 1 1 1 0 0 1 1 1 0 -0 -1 -1 -2 -2 -3 -3 -2
-3 -4 -2 0 -0 -2 -6 -7 -5 -1 0 1 0 -1 -5 -7 -8 -8 -8 -8 -5 -2 1 1 0 -1 -2 -1 -0 -0 -0 -0 -1 -2 -3 -5 -5 -4 -2 1 2 2 2 2 2 1 1 1 2 2 1 0 -1 -2 -3 -2 -1 -1 -1 -1 -1 -1 -1 1 2 3 3 2 1 1 1 1 1 1 2 2 2 1 0 -0 -0 -1 -1 -3 -3 -3
-1 -2 -3 -1 2 2 -2 -7 -5 -1 1 1 2 3 2 -2 -4 -6 -9 -11 -9 -5 -1 1 1 -1 -2 -1 -0 1 0 -1 -3 -4 -5 -7 -7 -6 -4 -1 0 1 2 3 3 2 1 2 2 3 2 1 1 -0 -2 -1 -0 1 1 1 1 1 1 2 2 2 2 1 1 1 1 1 1 2 2 2 1 0 -0 0 1 1 -1 -2 -3 -3
-2 -1 -2 -2 0 2 1 -2 -2 0 0 -1 -0 1 1 -0 0 0 -4 -10 -10 -7 -4 -1 1 1 -0 -0 1 2 2 -0 -2 -4 -6 -8 -8 -8 -8 -6 -3 -1 1 2 3 3 2 2 2 2 2 2 2 1 0 -0 0 1 2 2 2 2 2 2 2 2 1 1 0 0 1 1 1 1 1 1 0 -0 -1 1 2 2 0 -1 -2 -3
-4 -3 -2 -3 -2 -1 -1 -2 -1 0 0 -1 -2 -3 -4 -1 3 6 5 -0 -3 -3 -4 -2 -0 1 1 1 2 4 4 2 0 -2 -3 -5 -6 -8 -9 -9 -8 -5 -2 1 2 2 2 2 2 2 2 3 3 3 2 1 1 1 1 1 1 2 2 2 1 1 1 0 0 0 0 0 0 0 0 -0 -1 -1 -0 2 3 3 1 -1 -2 -2
-5 -4 -5 -5 -3 -2 -2 -3 -3 -2 -1 -0 -0 -2 -4 1 5 9 13 12 9 7 5 4 2 1 1 2 4 6 6 3 1 1 1 -1 -2 -4 -7 -9 -10 -8 -4 -2 -1 0 2 3 3 2 2 3 3 3 3 1 1 1 1 1 1 1 2 1 1 0 0 0 0 0 0 -0 -0 -1 -1 -1 -1 -1 1 2 3 3 1 -1 -1 -2
-6 -6 -7 -7 -6 -4 -3 -3 -2 -1 -1 0 1 1 2 3 5 6 8 6 6 7 10 9 8 7 5 4 5 7 7 4 1 -1 -1 -1 -0 -1 -3 -7 -9 -10 -6 -5 -5 -4 1 3 3 2 2 3 4 4 4 2 1 1 1 1 1 1 1 1 1 0 1 1 1 1 1 0 -0 -1 -1 -1 -1 -0 1 2 2 2 1 -0 -1 -2
-3 -3 -4 -6 -7 -7 -6 -4 -2 -2 -2 -0 -0 -0 0 -0 -0 1 3 -1 -0 2 4 3 5 6 5 3 4 7 9 8 4 -1 -5 -5 -3 -0 -0 -4 -7 -8 -6 -6 -8 -7 -3 0 1 0 0 1 3 4 4 3 2 2 2 2 2 1 1 1 1 1 1 1 1 1 1 1 0 -0 -1 -1 -0 0 1 2 2 1 1 -1 -1 -1
-1 -1 -3 -5 -6 -8 -8 -5 -4 -4 -3 -2 -1 -2 -1 -3 -3 -3 -1 -3 -1 1 -0 -2 -2 -2 -4 -1 2 7 12 13 11 5 -2 -7 -6 -3 0 -2 -4 -6 -7 -7 -7 -7 -5 -4 -3 -3 -3 -2 0 2 3 3 2 2 2 2 2 2 2 2 2 2 2 2 2 1 1 1 1 1 0 -0 0 1 1 1 1 1 -0 -1 -1 -1
3 1 -2 -3 -6 -8 -8 -7 -7 -6 -3 -2 -2 -1 -0 -1 -1 -2 -4 -2 2 4 1 3 3 -1 -7 -8 -3 3 10 13 15 16 15 9 6 4 3 -0 -3 -6 -9 -7 -5 -4 -4 -4 -4 -4 -5 -4 -2 -1 0 1 1 1 1 2 2 2 2 3 3 3 3 3 2 2 2 2 1 1 1 0 1 1 1 1 1 0 -0 -1 -1 -1
6 7 5 1 -1 -3 -2 -5 -6 -5 -3 -3 -3 -2 1 3 5 7 5 6 7 8 6 6 6 3 0 -5 -5 -3 -0 8 16 22 22 24 29 31 26 17 8 -1 -7 -8 -6 -3 -2 -3 -3 -4 -5 -4 -3 -2 -2 -2 -1 -0 1 1 1 2 2 2 2 3 3 3 3 3 3 2 2 1 1 1 1 1 1 1 1 0 -0 -1 -1 -1
-1 2 5 4 3 4 6 2 -1 -3 -3 -5 -4 -1 2 6 10 11 10 10 10 10 10 7 4 1 0 -3 -5 -7 -9 1 8 10 6 4 10 22 37 40 35 23 8 -1 -4 -3 -1 -1 -1 -2 -3 -3 -3 -3 -3 -3 -2 -1 0 1 1 2 2 1 2 2 3 4 4 4 4 3 3 2 1 1 1 1 1 1 1 0 -0 -0 -1 -1
-10 -10 -8 -8 -6 -5 -4 -5 -4 -3 -6 -5 0 5 5 6 6 4 0 3 5 7 10 7 4 2 2 -4 -10 -13 -9 1 8 10 6 -1 -6 -3 11 27 36 38 30 16 8 4 2 1 0 0 -1 -2 -3 -4 -4 -3 -2 -1 -0 1 2 2 2 2 2 2 2 3 4 4 4 4 3 3 2 2 2 2 2 1 1 0 -0 -1 -1 -1
-7 -10 -8 -4 -5 -8 -12 -9 -8 -8 -9 -3 3 5 2 3 2 -0 -3 -0 1 2 4 -0 1 4 7 -5 -13 -14 -5 1 5 6 4 -6 -13 -13 -1 8 13 17 21 19 17 12 7 3 1 -0 -0 -0 -1 -2 -3 -4 -3 -2 -1 0 2 2 3 3 3 2 2 3 3 3 3 4 4 3 3 3 3 2 2 2 1 1 -0 -0 -1 -1
0 -7 -9 -5 -4 -6 -10 -9 -8 -6 -4 3 5 4 0 1 -1 -2 -2 1 0 -1 -1 -2 0 2 1 -10 -15 -13 -4 -1 7 12 9 -11 -24 -23 0 5 5 3 3 7 12 15 14 8 2 -2 -1 0 1 0 -1 -2 -3 -3 -3 -1 0 2 3 3 3 3 3 3 3 2 2 3 3 3 4 3 3 3 2 2 2 1 0 -0 -0 -1
7 2 -3 -2 -4 -6 -9 -8 -7 -5 -3 0 1 0 0 0 -1 -2 1 3 1 -2 -2 -1 -1 -4 -10 -13 -13 -11 -11 -3 9 18 17 -5 -22 -25 -3 1 2 -0 -6 -6 -2 4 10 8 3 -1 -2 -0 1 2 2 1 -0 -1 -2 -2 -1 0 2 3 3 3 3 3 3 3 2 2 3 3 3 3 3 3 2 2 2 1 1 0 -0 -1
8 10 10 9 6 3 0 -1 -1 -1 0 -1 -2 -2 -1 -0 -1 -2 -0 1 -0 -3 -4 -3 -7 -13 -20 -14 -13 -15 -21 -7 8 19 18 2 -11 -16 -11 -3 1 0 -7 -9 -9 -6 -2 1 0 -1 -2 -1 1 2 2 2 2 1 -0 -1 -1 -1 0 1 2 3 3 4 4 4 3 3 2 3 3 3 3 2 2 2 2 2 1 1 0 -0
5 8 11 13 15 17 17 16 16 15 15 14 10 7 6 6 4 -0 -4 -3 -3 -3 -3 -4 -9 -16 -22 -17 -20 -26 -31 -10 6 15 15 4 -7 -15 -18 -5 3 4 -5 -9 -9 -6 -3 -2 -3 -3 -4 -2 -0 2 2 3 3 3 2 1 0 -0 -0 0 1 2 3 3 4 4 4 3 2 2 3 3 3 2 1 2 2 2 2 1 1 0
4 4 4 6 10 13 17 19 19 18 21 25 26 24 24 22 18 13 6 1 -1 -1 1 -1 -7 -12 -14 -14 -23 -30 -29 -12 -1 7 12 7 -4 -17 -25 -9 1 4 -2 -7 -7 -5 -1 -3 -5 -6 -4 -0 3 4 3 4 4 4 4 4 3 2 1 0 1 1 3 3 3 3 3 3 2 2 2 3 3 2 1 1 2 2 2 2 2 1
0 1 2 3 4 5 6 3 1 2 5 6 9 13 20 19 19 18 14 7 3 2 4 1 -4 -8 -9 -12 -19 -23 -20 -12 -8 -2 10 12 2 -12 -23 -11 -3 1 -2 -6 -7 -5 -1 -5 -8 -8 -2 6 9 10 7 7 6 5 5 5 5 4 3 1 1 1 2 3 3 3 3 2 1 1 2 3 4 3 1 1 2 3 4 4 4 2
-4 -5 -4 -3 -1 2 4 8 9 8 5 2 1 3 6 7 8 7 4 6 10 13 11 5 -0 -5 -9 -13 -17 -17 -13 -13 -10 -2 14 15 4 -9 -17 -9 -5 -3 -1 -3 -6 -7 -7 -8 -9 -8 -3 6 10 11 7 5 5 4 4 4 4 4 3 2 2 1 2 2 3 4 3 2 1 1 1 3 4 3 1 1 2 4 5 5 4 2
-5 -5 -6 -6 -6 -5 -3 1 5 7 8 7 6 7 9 8 5 0 -5 4 15 23 23 14 6 -3 -10 -12 -13 -13 -14 -16 -9 3 18 14 2 -9 -9 -5 -5 -4 4 3 -2 -8 -13 -10 -7 -6 -7 -3 -2 -3 -6 -3 -1 1 2 2 2 2 2 2 2 1 1 2 3 3 4 3 2 1 2 3 4 4 2 3 4 5 6 5 4 1
-8 -7 -8 -10 -9 -8 -6 -4 -1 0 2 4 6 9 13 13 10 6 1 5 10 15 17 17 13 6 -1 -2 -4 -9 -19 -23 -12 5 18 13 3 -5 -4 -5 -4 -0 9 7 2 -6 -14 -10 -7 -6 -7 -7 -9 -13 -15 -10 -5 -1 1 0 -0 -0 0 1 1 0 0 1 1 2 3 3 3 2 2 3 4 4 4 5 5 6 5 4 3 2
-9 -10 -10 -13 -12 -9 -6 -3 -2 -1 -1 1 4 7 10 12 12 11 10 11 10 9 8 8 8 9 9 9 7 -2 -18 -24 -11 8 20 20 12 4 2 -0 1 5 12 11 6 0 -6 -7 -7 -7 -5 -4 -7 -11 -14 -10 -5 -1 0 -1 -2 -2 -1 1 0 -0 -1 -1 -0 1 2 3 3 3 3 3 4 4 5 5 6 5 4 3 3 2
-7 -8 -8 -9 -9 -7 -4 -2 -1 -1 -2 -1 1 4 6 9 10 11 12 13 13 12 10 7 5 4 6 9 11 8 -2 -5 3 14 25 27 22 16 15 15 15 16 21 17 13 9 5 1 -1 -2 -1 1 -1 -4 -7 -5 -2 0 0 -1 -3 -3 -1 1 0 -1 -2 -2 -1 -0 1 2 3 3 3 3 4 4 4 5 5 4 3 2 1 1
-5 -5 -5 -5 -4 -3 -0 0 -0 -1 -2 -3 -2 -0 2 4 6 7 8 9 10 11 12 11 8 5 1 2 6 9 10 12 15 17 21 20 16 12 14 21 24 26 26 17 13 11 10 6 2 -1 0 3 3 2 0 2 3 3 2 0 -1 -2 -1 0 0 -1 -1 -2 -2 -2 -1 1 2 2 3 3 3 4 4 4 4 3 2 0 0 1
-5 -4 -4 -3 0 3 3 1 -0 -2 -3 -3 -3 -1 -0 0 1 2 3 5 8 9 9 9 8 7 3 1 -1 -1 -0 5 9 10 10 10 6 -0 -2 6 14 19 18 11 8 7 6 3 -0 -3 -4 -1 1 3 4 4 4 4 3 2 1 -0 -0 -0 -0 -0 -1 -1 -2 -2 -1 0 1 2 2 2 2 3 3 3 3 3 1 -0 -0 1
-5 -6 -5 2 8 10 7 2 -1 -3 -3 -3 -2 -1 -0 -0 -0 -1 -1 2 3 3 1 4 6 7 7 5 1 -5 -11 -5 2 9 10 10 6 0 -7 -5 2 9 10 6 4 4 3 2 0 -1 -3 -5 -6 -5 -0 2 3 2 1 2 2 2 1 1 0 -0 -1 -1 -2 -2 -1 -0 1 1 0 -0 -0 0 1 1 2 2 1 0 -0 0
-6 -6 -5 4 9 10 6 1 -1 -2 -1 -1 -1 -1 -1 -1 -1 -1 -1 0 -1 -0 4 11 12 10 8 8 6 2 -6 -6 1 9 15 15 12 6 -3 -7 -3 4 10 9 7 5 4 1 -1 -2 -2 -6 -10 -13 -11 -4 -1 -0 -2 -0 2 4 3 2 1 0 -1 -2 -2 -2 -2 -1 -1 -1 -2 -2 -1 -0 0 0 1 2 2 2 1 1
-5 -5 -3 1 3 3 0 -1 0 2 2 -0 -1 -2 -2 -1 -2 -2 -1 0 1 3 9 15 16 17 17 20 19 13 4 -1 1 7 14 16 16 13 5 -4 -7 -4 4 7 7 5 3 0 -2 -4 -4 -4 -6 -10 -12 -6 -0 2 -1 -0 2 4 4 3 3 1 -0 -2 -2 -2 -2 -2 -2 -2 -3 -2 1 4 5 4 5 5 4 4 3 3
-4 -3 -3 -1 -0 1 1 1 2 2 2 -1 -3 -4 -4 -3 -3 -2 0 4 5 5 3 1 3 6 8 10 10 9 3 -1 1 5 11 14 16 16 13 3 -5 -6 -1 4 5 4 3 1 -1 -3 -3 -3 -4 -7 -10 -4 1 5 5 4 3 2 3 4 3 2 0 -1 -1 -1 -2 -2 -2 -1 -2 1 5 8 10 11 13 13 11 11 10 9
-1 1 1 -1 -1 -1 -0 -0 -0 0 1 -0 -2 -3 -5 -6 -4 -0 6 11 13 11 6 1 -2 -2 -2 -1 -1 -2 -4 -4 -3 -0 4 9 12 15 15 9 3 -1 1 5 6 6 5 4 1 -1 -2 -3 -6 -8 -10 -7 -3 3 10 9 5 2 3 4 4 2 1 1 1 0 -0 -0 -0 1 1 4 6 7 7 10 13 15 15 16 16 14
2 6 5 2 0 -0 -0 -1 -1 -0 0 -0 -1 -3 -5 -7 -6 -4 2 6 8 8 8 6 4 1 -0 -1 -2 -3 -4 -5 -5 -4 -2 1 5 9 13 11 7 3 3 6 9 10 8 5 1 -2 -3 -2 -3 -5 -7 -9 -9 -5 5 8 6 4 4 4 3 2 3 4 4 3 2 1 1 2 3 5 5 4 3 5 7 9 10 8 8 7
9 13 10 4 0 -1 -0 -0 0 1 1 0 -1 -3 -4 -5 -7 -8 -9 -7 -5 -2 -0 1 0 -1 -2 -2 -3 -3 -3 -4 -4 -4 -3 -3 -1 2 4 5 3 2 2 4 6 7 7 5 1 -3 -4 -2 -1 -2 -4 -6 -7 -8 -4 2 5 7 7 4 2 2 3 3 4 3 2 1 1 2 3 4 4 3 2 2 3 4 6 3 -1 -5
11 14 11 5 0 -3 -3 -2 -0 1 2 1 0 -1 -2 -3 -4 -5 -8 -8 -8 -5 -1 1 0 -3 -7 -8 -8 -6 -3 -3 -3 -3 -3 -3 -3 -3 -2 -2 -2 -1 1 2 1 0 2 3 2 -1 -3 -0 -0 -2 -5 -5 -4 -4 -7 -6 -1 7 12 8 7 7 7 7 6 5 3 1 1 2 3 3 4 5 6 5 5 4 3 1 -1 -4
1 2 2 0 -1 -2 -2 -2 -2 -1 -0 -0 -1 -1 -1 -1 -1 -3 -5 -7 -7 -5 -2 1 1 -1 -6 -12 -13 -12 -8 -5 -3 -2 -3 -4 -4 -4 -5 -5 -4 -1 2 1 -2 -5 -5 -0 1 1 0 2 2 -0 -4 -5 -3 -2 -4 -11 -5 6 16 12 10 10 8 6 6 7 8 7 6 5 3 3 4 6 7 8 8 6 3 -1 -1 0
-0 -2 -3 -2 -1 -1 -1 -2 -2 -1 -1 -1 -2 -3 -2 -1 -0 -1 -3 -5 -6 -6 -5 -3 -3 -4 -7 -11 -13 -14 -13 -9 -5 -3 -2 -2 -2 -2 -4 -6 -5 -2 2 1 -2 -6 -8 -4 -2 0 3 5 4 1 -2 -4 -4 -3 -3 -10 -9 -2 11 14 12 8 2 -0 -2 -2 2 9 11 11 8 6 7 8 8 7 7 7 5 4 4 4
4 1 -0 -0 -1 -1 -2 -2 -1 1 1 -1 -2 -2 -2 -0 1 1 -0 -2 -4 -4 -3 -3 -4 -6 -10 -13 -13 -12 -13 -13 -10 -7 -4 -2 -0 0 -1 -3 -4 -3 0 2 1 -1 -3 -5 -4 -2 3 5 5 3 -0 -2 -3 -3 -2 -5 -8 -8 -4 2 4 3 2 -2 -5 -7 -6 1 8 13 15 12 10 9 7 6 5 4 2 3 5 5
-1 -2 -3 -3 -3 -1 0 2 4 4 2 -1 -2 -2 -1 0 1 1 1 0 -1 -2 -2 -0 1 -1 -7 -10 -10 -9 -10 -12 -11 -9 -5 -2 -0 1 2 1 0 1 1 3 4 5 4 -1 -2 -1 4 5 5 3 1 0 -1 -2 -2 1 1 -1 -4 -5 -3 0 2 -2 -5 -6 -6 -5 -0 7 15 13 11 9 7 6 5 2 -0 -0 1 1
-4 -4 -5 -4 -0 6 13 16 14 9 1 -3 -4 -3 -1 -0 0 -0 -0 0 1 -0 -2 -1 1 0 -3 -5 -6 -5 -7 -11 -12 -11 -7 -3 -1 1 2 2 3 3 4 3 4 6 7 5 4 5 8 8 5 0 -2 -0 -0 -2 -3 2 6 7 3 -1 -1 0 0 -4 -5 -6 -6 -6 -3 2 9 10 10 10 9 9 7 4 1 1 1 1
-3 -3 -3 -1 5 14 21 18 11 4 -2 -4 -5 -4 -2 0 1 0 -1 -0 1 1 0 -1 -1 -2 -3 -4 -3 -2 -2 -6 -9 -10 -8 -6 -4 -2 -1 -0 1 2 2 1 2 2 4 5 6 8 10 9 5 0 -4 -1 1 0 -3 1 5 7 4 0 -1 -0 -1 -4 -5 -5 -5 -4 -2 0 3 6 8 9 9 8 7 5 4 3 3 3
-0 -1 -1 -1 1 3 4 1 -0 -2 -3 -4 -5 -5 -4 0 3 4 2 1 1 2 2 0 -1 -2 -4 -5 -4 -2 -1 -2 -4 -5 -5 -5 -4 -4 -4 -5 -4 -3 -3 -4 -4 -3 -2 -2 -1 0 2 4 3 -0 -4 -2 1 2 2 2 4 4 2 -0 -1 -2 -2 -3 -3 -4 -4 -2 -1 -1 -0 4 6 7 6 4 3 2 2 3 3 3
1 1 1 -0 -2 -3 -5 -4 -3 -3 -3 -3 -4 -4 -5 -3 0 3 4 3 2 2 2 2 1 -1 -3 -5 -4 -3 -1 -1 -2 -3 -4 -3 -1 0 -1 -4 -6 -6 -7 -8 -8 -6 -5 -6 -8 -8 -6 -2 -0 -0 -2 -2 -0 2 4 2 2 2 1 -1 -2 -3 -4 -2 -1 -1 -1 -0 -0 -1 -1 3 6 6 4 2 1 -0 -1 1 2 2
-1 -0 0 -0 -1 -2 -3 -3 -3 -3 -3 -3 -3 -4 -6 -6 -4 -2 0 1 2 1 1 2 2 2 -1 -3 -3 -2 -0 -0 -2 -4 -5 0 6 11 11 9 6 4 1 -0 -1 -0 0 -2 -6 -10 -11 -6 -2 1 1 -1 -1 1 1 -2 -1 0 1 -1 -2 -3 -2 0 1 1 1 1 0 -0 -0 4 6 6 4 2 0 -1 -3 -1 0 0
Height
1450 1449 1449 1449 1449 1448 1446 1447 1447 1446 1444 1444 1444 1444 1444 1443 1443 1442 1442 1441 1441 1440 1439 1438 1438 1437 1436 1436 1435 1435 1434 1434 1434 1434 1434 1434 1434 1434 1434 1434 1434 1434 1434 1434 1434 1435 1435 1436 1436 1437 1438 1438 1439 1440 1439 1440 1440 1441 1442 1442 1443 1443 1444 1445 1446 1447 1448 1448 1449 1450 1451 1453 1453 1454 1455 1456 1457 1458 1459 1459 1460 1461 1462 1463 1463 1464
1447 1447 1446 1446 1447 1446 1443 1444 1445 1444 1443 1442 1442 1441 1441 1440 1440 1439 1439 1438 1438 1438 1437 1436 1435 1435 1434 1433 1433 1432 1432 1432 1432 1432 1432 1432 1432 1432 1432 1432 1432 1432 1432 1432 1432 1432 1433 1433 1433 1434 1435 1436 1436 1437 1437 1437 1438 1438 1439 1440 1441 1442 1442 1443 1443 1444 1445 1446 1447 1448 1449 1450 1451 1452 1453 1454 1454 1455 1456 1457 1458 1459 1459 1460 1461 1461
1445 1444 1443 1443 1444 1443 1442 1441 1442 1442 1441 1440 1439 1439 1438 1438 1437 1436 1436 1435 1435 1434 1434 1433 1433 1432 1431 1430 1430 1429 1429 1429 1429 1429 1429 1429 1429 1429 1429 1429 1429 1429 1429 1429 1429 1429 1430 1430 1431 1431 1432 1433 1433 1434 1435 1435 1435 1436 1437 1437 1438 1439 1439 1440 1441 1442 1443 1443 1444 1445 1446 1447 1448 1449 1450 1451 1452 1453 1454 1455 1456 1456 1457 1458 1458 1459
1443 1442 1441 1441 1441 1440 1439 1439 1438 1438 1438 1438 1437 1436 1436 1435 1434 1433 1433 1433 1432 1431 1431 1430 1430 1429 1428 1428 1427 1427 1426 1426 1426 1426 1426 1427 1427 1427 1427 1427 1426 1426 1426 1426 1427 1427 1427 1428 1428 1428 1429 1430 1430 1431 1432 1433 1433 1434 1434 1435 1435 1436 1437 1438 1438 1439 1440 1441 1442 1443 1443 1445 1446 1447 1448 1448 1449 1450 1451 1452 1453 1454 1455 1455 1456 1457
1440 1440 1438 1439 1438 1437 1436 1436 1436 1435 1435 1434 1434 1433 1433 1432 1431 1430 1430 1430 1429 1429 1428 1428 1427 1426 1426 1425 1424 1424 1423 1423 1423 1423 1423 1423 1423 1424 1424 1424 1424 1424 1423 1423 1424 1424 1424 1425 1425 1426 1426 1427 1427 1428 1429 1430 1430 1431 1432 1433 1433 1434 1434 1435 1436 1436 1437 1438 1439 1440 1441 1442 1443 1444 1445 1446 1447 1448 1448 1450 1451 1451 1452 1453 1453 1454
1438 1438 1437 1437 1435 1434 1433 1433 1433 1433 1432 1431 1430 1430 1430 1429 1428 1428 1427 1427 1426 1426 1425 1425 1424 1424 1423 1423 1422 1422 1421 1420 1420 1419 1419 1420 1420 1420 1421 1421 1421 1421 1421 1421 1421 1421 1422 1422 1422 1423 1423 1424 1424 1425 1426 1427 1428 1428 1429 1430 1431 1432 1432 1433 1433 1433 1434 1435 1437 1438 1438 1439 1440 1442 1443 1443 1444 1445 1446 1447 1448 1449 1449 1450 1451 1452
1435 1435 1435 1434 1433 1432 1431 1430 1430 1430 1430 1428 1427 1426 1426 1426 1425 1425 1424 1424 1423 1423 1423 1422 1422 1421 1421 1420 1420 1419 1419 1418 1417 1417 1417 1416 1417 1417 1417 1418 1418 1418 1418 1418 1418 1418 1419 1419 1419 1420 1421 1421 1422 1423 1423 1424 1425 1425 1426 1427 1428 1429 1429 1430 1431 1431 1432 1433 1434 1435 1436 1437 1438 1439 1440 1441 1442 1443 1443 1444 1445 1446 1447 1448 1448 1449
1433 1432 1432 1432 1430 1429 1428 1428 1427 1428 1428 1427 1425 1424 1423 1422 1422 1422 1421 1421 1421 1420 1420 1419 1418 1418 1418 1418 1417 1417 1416 1416 1415 1414 1414 1413 1413 1414 1414 1414 1414 1415 1415 1415 1415 1416 1416 1416 1417 1418 1418 1418 1419 1420 1421 1421 1422 1423 1423 1424 1425 1426 1427 1428 1428 1429 1430 1431 1432 1433 1433 1434 1435 1436 1437 1438 1439 1440 1441 1442 1443 1443 1444 1445 1446 1447
1432 1430 1429 1429 1429 1428 1425 1424 1424 1425 1426 1425 1423 1422 1421 1419 1418 1418 1418 1418 1418 1417 1417 1416 1415 1414 1414 1414 1414 1414 1413 1413 1412 1411 1411 1410 1410 1411 1411 1411 1411 1411 1411 1412 1412 1413 1413 1413 1414 1415 1415 1416 1417 1418 1418 1419 1420 1420 1421 1422 1423 1424 1424 1425 1426 1427 1428 1428 1430 1431 1431 1432 1433 1434 1435 1435 1436 1437 1438 1439 1440 1441 1442 1443 1444 1445
1432 1430 1428 1427 1427 1427 1425 1422 1421 1422 1424 1423 1421 1420 1420 1418 1417 1415 1415 1414 1414 1414 1414 1414 1413 1412 1411 1411 1411 1411 1410 1409 1408 1408 1408 1407 1407 1408 1408 1408 1408 1408 1408 1409 1409 1409 1410 1411 1411 1412 1413 1413 1414 1415 1416 1416 1417 1418 1419 1419 1420 1421 1422 1423 1423 1424 1425 1426 1427 1428 1429 1430 1431 1431 1432 1433 1433 1434 1435 1437 1438 1439 1440 1441 1442 1443
1429 1428 1428 1425 1424 1424 1424 1422 1420 1420 1421 1420 1419 1418 1418 1417 1416 1414 1412 1411 1410 1411 1411 1411 1410 1409 1408 1408 1408 1408 1408 1407 1405 1404 1404 1404 1404 1404 1404 1404 1405 1405 1406 1406 1406 1406 1407 1407 1408 1409 1410 1410 1411 1412 1413 1414 1414 1415 1416 1417 1418 1418 1419 1420 1421 1422 1423 1423 1424 1425 1426 1427 1428 1428 1429 1430 1431 1432 1433 1434 1435 1436 1438 1438 1440 1441
1428 1427 1426 1424 1423 1422 1421 1420 1419 1419 1419 1418 1417 1415 1414 1415 1415 1414 1411 1409 1408 1408 1408 1407 1407 1407 1406 1406 1405 1405 1405 1404 1403 1402 1401 1401 1401 1400 1401 1401 1401 1402 1402 1403 1403 1403 1403 1404 1405 1406 1407 1407 1408 1409 1410 1411 1412 1412 1413 1414 1415 1416 1416 1417 1418 1419 1420 1421 1422 1423 1423 1424 1425 1426 1427 1428 1428 1429 1430 1432 1433 1434 1435 1436 1437 1438
1427 1426 1425 1423 1421 1420 1420 1419 1418 1417 1417 1417 1416 1414 1413 1413 1413 1413 1410 1408 1407 1407 1406 1405 1404 1403 1403 1403 1403 1403 1402 1401 1400 1400 1399 1398 1398 1398 1398 1397 1397 1398 1398 1399 1399 1399 1400 1401 1402 1403 1403 1404 1405 1406 1407 1408 1408 1409 1410 1411 1412 1413 1413 1414 1415 1416 1417 1418 1419 1420 1421 1421 1422 1423 1424 1425 1426 1427 1428 1429 1430 1432 1433 1434 1435 1436
1425 1424 1423 1421 1420 1419 1419 1418 1417 1415 1414 1414 1414 1413 1412 1411 1411 1410 1408 1406 1405 1404 1404 1403 1401 1400 1400 1400 1400 1400 1400 1399 1398 1398 1397 1396 1395 1395 1395 1395 1394 1394 1394 1395 1395 1396 1397 1398 1399 1399 1400 1401 1402 1403 1403 1404 1405 1406 1407 1408 1409 1410 1411 1412 1413 1413 1414 1415 1416 1417 1418 1419 1420 1420 1421 1422 1423 1424 1425 1427 1428 1429 1430 1432 1433 1433
1423 1422 1421 1419 1418 1418 1417 1417 1416 1414 1413 1413 1413 1412 1410 1409 1408 1408 1407 1404 1403 1402 1402 1401 1399 1398 1398 1397 1397 1397 1397 1396 1395 1394 1394 1393 1392 1393 1393 1392 1392 1391 1391 1391 1391 1392 1393 1394 1395 1396 1397 1398 1399 1400 1401 1402 1403 1403 1404 1405 1406 1407 1408 1409 1410 1411 1412 1413 1413 1414 1415 1416 1417 1418 1419 1420 1421 1422 1423 1424 1426 1427 1428 1429 1430 1431
1421 1421 1419 1417 1416 1415 1415 1415 1414 1413 1411 1411 1411 1410 1409 1407 1406 1406 1405 1403 1401 1401 1400 1399 1397 1395 1395 1395 1395 1396 1395 1393 1392 1391 1391 1389 1389 1389 1390 1390 1389 1388 1388 1388 1388 1389 1390 1391 1392 1393 1394 1395 1396 1397 1398 1398 1399 1400 1401 1402 1403 1404 1405 1406 1407 1408 1409 1410 1411 1412 1413 1413 1414 1415 1417 1418 1418 1419 1421 1422 1423 1424 1426 1427 1428 1428
1420 1419 1417 1416 1414 1413 1413 1413 1413 1411 1410 1409 1409 1408 1407 1406 1405 1404 1404 1402 1401 1399 1399 1398 1396 1394 1393 1393 1393 1394 1393 1392 1390 1388 1388 1387 1386 1386 1387 1386 1386 1385 1385 1385 1385 1386 1387 1388 1388 1389 1391 1392 1393 1394 1395 1396 1397 1398 1398 1399 1400 1401 1402 1403 1403 1405 1406 1407 1408 1409 1410 1411 1412 1413 1414 1415 1416 1417 1418 1419 1421 1422 1423 1424 1425 1426
1418 1418 1417 1414 1413 1411 1411 1411 1410 1409 1408 1408 1407 1406 1405 1404 1403 1403 1402 1401 1399 1398 1397 1396 1394 1393 1392 1391 1391 1391 1391 1390 1388 1386 1385 1385 1385 1385 1385 1384 1382 1381 1382 1382 1383 1383 1385 1385 1386 1387 1388 1389 1390 1391 1392 1393 1394 1394 1395 1396 1397 1398 1398 1399 1400 1402 1403 1404 1405 1406 1407 1408 1409 1410 1411 1412 1413 1414 1416 1417 1418 1419 1421 1422 1423 1423
1416 1416 1416 1414 1412 1410 1409 1409 1408 1408 1407 1406 1406 1405 1403 1402 1401 1400 1399 1398 1398 1396 1395 1393 1392 1391 1390 1389 1388 1388 1389 1388 1385 1383 1382 1381 1380 1381 1383 1383 1382 1379 1379 1379 1380 1381 1383 1383 1384 1384 1385 1386 1387 1388 1389 1390 1391 1392 1392 1393 1394 1395 1395 1396 1397 1398 1399 1401 1402 1403 1404 1405 1406 1407 1408 1409 1411 1412 1413 1415 1416 1417 1418 1419 1420 1421
1414 1413 1413 1413 1412 1409 1408 1407 1407 1407 1406 1405 1404 1403 1401 1399 1398 1398 1396 1395 1395 1394 1393 1392 1390 1389 1388 1387 1386 1386 1388 1387 1384 1382 1379 1378 1377 1377 1379 1380 1380 1379 1378 1378 1378 1379 1381 1381 1382 1383 1383 1383 1384 1385 1385 1386 1387 1388 1389 1390 1391 1392 1393 1393 1394 1395 1396 1397 1398 1400 1401 1402 1403 1404 1405 1407 1408 1409 1411 1412 1413 1415 1416 1417 1418 1418
1411 1410 1410 1411 1410 1408 1405 1403 1404 1404 1403 1402 1401 1400 1398 1397 1396 1395 1394 1393 1393 1392 1391 1390 1388 1387 1386 1385 1384 1384 1386 1386 1384 1381 1378 1377 1375 1375 1375 1376 1377 1377 1377 1377 1377 1378 1378 1379 1380 1380 1381 1381 1382 1382 1383 1383 1384 1385 1386 1387 1388 1388 1389 1390 1391 1392 1393 1394 1395 1396 1398 1399 1400 1401 1403 1404 1405 1407 1408 1409 1411 1412 1413 1414 1415 1416
1409 1407 1406 1407 1407 1405 1403 1401 1401 1401 1401 1400 1398 1397 1396 1395 1395 1393 1392 1392 1391 1389 1388 1387 1386 1385 1384 1384 1383 1382 1384 1385 1384 1381 1379 1377 1374 1373 1374 1374 1374 1374 1373 1374 1375 1376 1377 1377 1377 1378 1378 1379 1379 1380 1380 1381 1381 1382 1383 1383 1384 1385 1386 1387 1388 1389 1390 1391 1392 1393 1394 1396 1397 1398 1400 1401 1403 1404 1405 1407 1408 1409 1410 1412 1413 1414
1408 1405 1404 1403 1403 1402 1400 1398 1398 1398 1398 1398 1396 1394 1393 1394 1393 1392 1390 1390 1389 1388 1386 1385 1384 1383 1383 1382 1381 1381 1382 1383 1383 1381 1380 1378 1373 1371 1373 1373 1373 1372 1371 1372 1373 1374 1374 1374 1374 1375 1376 1377 1377 1378 1378 1379 1379 1379 1380 1381 1382 1382 1383 1384 1385 1386 1387 1388 1389 1390 1391 1392 1394 1395 1397 1398 1399 1401 1403 1404 1405 1407 1408 1409 1410 1411
1407 1404 1403 1402 1401 1399 1398 1397 1396 1395 1395 1394 1393 1392 1391 1391 1390 1389 1388 1388 1387 1386 1384 1383 1382 1381 1380 1380 1380 1379 1380 1381 1382 1381 1379 1376 1373 1371 1373 1373 1372 1370 1369 1370 1371 1372 1372 1372 1372 1373 1373 1374 1375 1375 1376 1377 1377 1378 1378 1378 1379 1379 1380 1381 1381 1382 1383 1384 1385 1387 1388 1389 1390 1392 1393 1395 1397 1398 1400 1401 1403 1404 1405 1406 1408 1409
1405 1403 1402 1401 1399 1398 1397 1396 1394 1393 1393 1392 1391 1389 1388 1388 1387 1386 1385 1385 1384 1383 1383 1382 1380 1378 1378 1378 1378 1377 1377 1378 1379 1379 1377 1374 1371 1370 1371 1372 1371 1369 1368 1368 1369 1370 1370 1370 1370 1370 1371 1372 1372 1373 1374 1374 1375 1375 1376 1376 1377 1377 1378 1378 1378 1379 1380 1381 1382 1383 1384 1386 1387 1388 1390 1392 1393 1395 1397 1398 1400 1401 1402 1404 1405 1406
1403 1402 1401 1399 1398 1396 1395 1394 1393 1392 1391 1390 1388 1387 1386 1385 1384 1383 1382 1381 1381 1381 1380 1379 1378 1376 1376 1376 1376 1374 1373 1375 1376 1375 1374 1372 1370 1368 1369 1370 1370 1368 1367 1367 1368 1368 1368 1368 1368 1368 1369 1369 1370 1370 1371 1372 1373 1373 1373 1374 1374 1375 1375 1375 1376 1376 1377 1378 1379 1380 1381 1383 1384 1385 1387 1388 1390 1392 1394 1396 1397 1398 1400 1401 1403 1404
1401 1399 1398 1397 1395 1394 1392 1390 1389 1388 1388 1386 1386 1385 1384 1383 1382 1380 1379 1378 1378 1378 1378 1376 1375 1374 1374 1374 1373 1371 1371 1372 1372 1371 1371 1370 1368 1367 1366 1367 1368 1367 1366 1365 1365 1366 1366 1366 1366 1367 1368 1367 1368 1368 1369 1370 1370 1371 1371 1372 1372 1372 1373 1373 1373 1374 1374 1375 1376 1377 1378 1380 1381 1382 1383 1385 1387 1389 1391 1393 1394 1396 1397 1399 1400 1402
1398 1396 1395 1394 1393 1392 1390 1389 1387 1386 1384 1383 1383 1382 1381 1381 1380 1379 1377 1376 1376 1375 1374 1373 1373 1373 1372 1372 1370 1369 1369 1368 1368 1368 1368 1368 1366 1364 1363 1364 1365 1365 1364 1363 1363 1363 1363 1363 1364 1365 1366 1366 1366 1366 1367 1367 1368 1368 1368 1369 1369 1370 1370 1371 1371 1371 1372 1373 1373 1374 1376 1377 1378 1379 1381 1382 1384 1386 1388 1390 1392 1393 1395 1396 1398 1399
1394 1393 1392 1391 1390 1389 1388 1386 1385 1383 1382 1381 1380 1380 1379 1379 1378 1377 1375 1375 1375 1373 1372 1371 1370 1370 1370 1369 1368 1367 1366 1365 1364 1365 1366 1366 1363 1361 1361 1362 1362 1362 1362 1362 1361 1361 1361 1360 1361 1362 1363 1363 1364 1364 1364 1365 1365 1366 1366 1366 1367 1367 1367 1368 1368 1369 1369 1370 1371 1372 1373 1374 1376 1377 1378 1379 1381 1383 1385 1387 1389 1391 1392 1394 1395 1397
1391 1390 1388 1387 1386 1385 1384 1383 1382 1381 1379 1379 1378 1378 1378 1377 1375 1374 1373 1373 1373 1372 1371 1370 1369 1368 1368 1368 1367 1365 1363 1362 1362 1363 1364 1364 1361 1358 1359 1360 1359 1359 1359 1360 1359 1358 1358 1357 1358 1359 1360 1360 1361 1362 1362 1363 1363 1363 1364 1364 1364 1364 1365 1365 1366 1366 1367 1368 1368 1369 1370 1372 1373 1374 1375 1377 1378 1380 1382 1384 1386 1388 1389 1391 1393 1394
1388 1387 1385 1384 1383 1382 1381 1380 1379 1378 1377 1376 1376 1376 1375 1374 1373 1372 1371 1371 1370 1370 1369 1369 1368 1368 1367 1367 1366 1364 1361 1360 1361 1362 1363 1362 1359 1358 1358 1358 1357 1357 1357 1358 1357 1357 1355 1356 1357 1357 1358 1358 1358 1359 1360 1361 1362 1362 1362 1362 1362 1362 1363 1363 1363 1364 1364 1365 1366 1367 1368 1369 1370 1372 1373 1374 1376 1378 1379 1381 1383 1385 1387 1389 1390 1392
1387 1385 1383 1381 1380 1379 1378 1378 1377 1376 1375 1375 1374 1373 1373 1373 1372 1371 1370 1369 1368 1368 1367 1367 1366 1366 1366 1365 1364 1362 1360 1359 1360 1361 1361 1359 1358 1357 1357 1356 1355 1355 1355 1355 1355 1355 1354 1354 1355 1356 1356 1356 1356 1357 1358 1359 1359 1359 1360 1360 1360 1360 1361 1361 1362 1362 1362 1363 1364 1364 1366 1367 1368 1369 1370 1372 1373 1375 1377 1378 1380 1382 1384 1386 1388 1389
1384 1383 1381 1379 1378 1377 1376 1376 1376 1375 1374 1373 1373 1372 1371 1371 1370 1370 1369 1368 1368 1367 1366 1365 1364 1363 1363 1363 1362 1361 1359 1358 1358 1358 1358 1357 1356 1356 1355 1355 1354 1354 1353 1352 1352 1353 1353 1353 1353 1353 1354 1354 1354 1355 1356 1356 1357 1357 1357 1358 1358 1358 1359 1359 1359 1360 1360 1361 1362 1363 1363 1364 1365 1367 1368 1369 1371 1372 1374 1376 1378 1380 1382 1383 1385 1387
1383 1381 1379 1377 1375 1374 1374 1374 1374 1374 1373 1372 1371 1371 1370 1369 1369 1368 1368 1367 1366 1365 1364 1363 1363 1362 1361 1360 1360 1359 1358 1358 1357 1357 1356 1355 1354 1354 1354 1353 1353 1352 1351 1351 1351 1351 1351 1351 1351 1352 1352 1352 1352 1353 1353 1353 1354 1354 1355 1356 1356 1356 1357 1358 1358 1358 1358 1359 1359 1360 1361 1362 1363 1364 1366 1367 1368 1370 1372 1374 1376 1378 1379 1381 1383 1384
1381 1379 1377 1375 1374 1373 1373 1373 1373 1373 1372 1371 1370 1369 1368 1368 1367 1366 1365 1365 1364 1363 1363 1361 1361 1360 1359 1358 1358 1357 1356 1356 1356 1356 1355 1353 1353 1353 1353 1352 1351 1351 1350 1349 1349 1349 1349 1349 1350 1350 1350 1350 1350 1350 1351 1351 1352 1352 1353 1353 1354 1355 1355 1356 1356 1356 1356 1357 1357 1358 1359 1360 1361 1362 1363 1365 1367 1368 1370 1372 1374 1376 1378 1379 1380 1382
1379 1377 1376 1375 1374 1373 1373 1373 1372 1371 1370 1369 1368 1367 1367 1366 1365 1364 1363 1363 1362 1361 1360 1358 1358 1358 1357 1357 1356 1356 1355 1354 1355 1355 1354 1353 1352 1352 1351 1350 1350 1349 1348 1348 1348 1348 1348 1348 1348 1348 1349 1349 1349 1348 1349 1350 1350 1351 1351 1351 1352 1353 1353 1354 1354 1354 1354 1354 1355 1356 1357 1358 1359 1360 1361 1363 1365 1367 1368 1370 1372 1374 1376 1377 1378 1380
1377 1376 1375 1374 1374 1373 1372 1371 1370 1369 1368 1368 1367 1366 1365 1364 1363 1362 1362 1361 1360 1359 1358 1357 1356 1355 1355 1355 1354 1354 1353 1353 1353 1353 1353 1352 1352 1351 1350 1349 1348 1348 1348 1347 1347 1346 1347 1347 1347 1347 1348 1348 1348 1348 1348 1349 1349 1349 1349 1349 1350 1351 1352 1352 1352 1352 1352 1353 1353 1354 1355 1356 1357 1358 1360 1362 1363 1365 1367 1369 1371 1372 1374 1375 1377 1378
1376 1375 1374 1373 1372 1372 1371 1370 1369 1368 1367 1367 1365 1364 1363 1363 1362 1361 1360 1359 1359 1358 1357 1356 1355 1354 1354 1353 1353 1353 1353 1352 1352 1351 1351 1351 1350 1350 1348 1348 1348 1348 1348 1348 1347 1347 1346 1346 1346 1346 1346 1346 1346 1347 1348 1348 1348 1348 1348 1348 1349 1349 1350 1350 1351 1351 1351 1351 1351 1352 1353 1354 1356 1357 1359 1360 1362 1364 1366 1368 1369 1371 1372 1374 1375 1377
1374 1373 1372 1371 1371 1370 1369 1368 1368 1367 1366 1365 1364 1363 1363 1362 1361 1359 1358 1358 1357 1356 1355 1355 1354 1353 1353 1353 1352 1352 1352 1351 1350 1350 1349 1349 1348 1348 1348 1347 1346 1346 1346 1347 1346 1346 1345 1345 1345 1345 1344 1344 1344 1345 1345 1346 1347 1347 1347 1347 1347 1348 1348 1348 1349 1349 1349 1349 1350 1351 1352 1353 1354 1356 1357 1359 1360 1361 1363 1364 1366 1368 1370 1371 1373 1374
1373 1372 1371 1370 1369 1369 1368 1367 1366 1365 1364 1364 1363 1362 1361 1361 1359 1358 1358 1357 1356 1355 1354 1353 1353 1352 1352 1351 1351 1350 1350 1349 1349 1348 1348 1348 1347 1346 1346 1345 1344 1344 1344 1344 1344 1344 1344 1343 1343 1343 1343 1343 1343 1343 1344 1344 1345 1346 1346 1346 1346 1346 1346 1347 1347 1347 1348 1348 1349 1349 1350 1351 1353 1354 1355 1357 1358 1359 1360 1362 1363 1365 1366 1367 1369 1371
1372 1370 1369 1369 1368 1368 1367 1366 1365 1364 1363 1362 1361 1360 1360 1359 1358 1357 1356 1355 1354 1354 1353 1353 1352 1351 1350 1349 1349 1348 1348 1348 1347 1347 1346 1346 1345 1345 1344 1343 1343 1342 1342 1342 1342 1342 1342 1342 1342 1342 1342 1342 1342 1343 1343 1343 1344 1344 1345 1345 1345 1345 1345 1345 1346 1346 1346 1347 1347 1348 1348 1349 1351 1352 1353 1354 1356 1357 1358 1359 1361 1362 1363 1365 1366 1367
1371 1370 1368 1368 1367 1366 1365 1364 1363 1363 1362 1361 1360 1359 1358 1358 1357 1356 1355 1354 1353 1352 1352 1351 1350 1349 1348 1347 1347 1346 1346 1346 1345 1345 1344 1344 1343 1343 1343 1342 1341 1341 1340 1340 1339 1339 1340 1340 1340 1340 1340 1341 1341 1341 1341 1341 1342 1343 1344 1344 1344 1345 1345 1344 1344 1345 1345 1345 1346 1347 1347 1348 1349 1350 1351 1353 1354 1355 1357 1358 1359 1360 1361 1363 1364 1366
1369 1368 1367 1366 1365 1364 1363 1363 1362 1361 1360 1359 1358 1357 1357 1356 1356 1355 1354 1353 1352 1351 1350 1350 1349 1348 1346 1345 1345 1344 1344 1344 1343 1343 1343 1342 1342 1341 1341 1341 1340 1340 1339 1339 1338 1338 1338 1338 1338 1338 1338 1339 1340 1340 1340 1340 1341 1341 1342 1343 1344 1345 1344 1344 1343 1344 1344 1344 1345 1346 1347 1348 1348 1349 1350 1351 1352 1353 1355 1356 1358 1359 1360 1361 1363 1364
1368 1367 1366 1365 1364 1363 1362 1361 1360 1359 1358 1358 1357 1356 1355 1355 1354 1354 1353 1352 1351 1350 1349 1348 1348 1346 1345 1344 1343 1342 1342 1341 1341 1341 1340 1340 1340 1340 1340 1339 1339 1339 1338 1338 1338 1337 1337 1337 1337 1337 1337 1338 1338 1338 1338 1339 1339 1340 1340 1341 1342 1343 1343 1343 1343 1343 1343 1343 1344 1345 1346 1347 1348 1349 1349 1350 1351 1352 1353 1355 1356 1358 1359 1360 1362 1363
1367 1365 1364 1363 1362 1361 1360 1359 1359 1358 1357 1356 1355 1354 1354 1353 1353 1353 1352 1351 1350 1349 1348 1347 1346 1345 1343 1342 1341 1340 1339 1339 1338 1338 1338 1338 1338 1338 1338 1338 1338 1338 1337 1337 1337 1336 1336 1335 1335 1335 1336 1336 1337 1337 1337 1337 1338 1338 1339 1340 1340 1341 1342 1342 1342 1342 1342 1342 1343 1344 1345 1346 1348 1348 1349 1349 1350 1351 1352 1353 1354 1356 1357 1359 1361 1362
1365 1364 1363 1362 1361 1360 1359 1358 1358 1357 1356 1355 1354 1353 1353 1352 1352 1351 1350 1349 1348 1348 1347 1346 1345 1344 1343 1341 1340 1339 1338 1337 1336 1336 1336 1336 1336 1336 1336 1336 1336 1336 1336 1335 1335 1335 1335 1334 1334 1334 1335 1335 1335 1335 1335 1336 1336 1337 1338 1338 1339 1339 1340 1340 1340 1340 1341 1341 1342 1343 1344 1345 1347 1348 1348 1349 1349 1350 1351 1352 1353 1354 1356 1358 1359 1361
1363 1363 1361 1361 1360 1359 1358 1357 1356 1355 1354 1353 1353 1352 1352 1351 1350 1349 1348 1348 1347 1346 1345 1344 1343 1343 1341 1340 1339 1338 1337 1335 1334 1333 1333 1333 1333 1333 1334 1334 1334 1334 1334 1334 1333 1333 1333 1333 1333 1333 1333 1333 1333 1333 1333 1334 1334 1335 1336 1337 1338 1338 1338 1338 1338 1338 1340 1341 1341 1342 1343 1345 1346 1347 1348 1348 1349 1349 1350 1351 1352 1353 1355 1356 1358 1360
1363 1362 1361 1360 1359 1359 1358 1356 1355 1354 1353 1352 1352 1351 1350 1350 1349 1348 1347 1346 1346 1345 1344 1343 1342 1341 1340 1339 1338 1337 1336 1335 1333 1332 1332 1331 1331 1332 1332 1332 1332 1332 1332 1332 1332 1331 1331 1331 1331 1332 1332 1332 1332 1331 1331 1331 1332 1333 1334 1335 1336 1336 1336 1336 1336 1337 1339 1340 1340 1341 1343 1344 1345 1346 1347 1348 1348 1349 1349 1350 1351 1353 1354 1355 1357 1358
1361 1360 1359 1359 1358 1357 1356 1354 1353 1353 1352 1351 1350 1349 1349 1348 1348 1347 1346 1345 1344 1343 1343 1342 1341 1340 1338 1337 1337 1336 1335 1334 1333 1332 1331 1330 1330 1330 1330 1330 1330 1331 1331 1330 1330 1330 1329 1329 1329 1329 1330 1330 1330 1329 1329 1329 1329 1331 1332 1333 1333 1334 1334 1334 1335 1336 1337 1338 1339 1340 1341 1342 1343 1345 1346 1347 1348 1348 1348 1349 1350 1352 1353 1354 1356 1357
1360 1359 1358 1357 1356 1355 1354 1353 1353 1352 1351 1350 1349 1348 1347 1347 1346 1345 1344 1344 1343 1342 1341 1340 1339 1338 1337 1336 1335 1335 1334 1333 1332 1331 1330 1330 1329 1329 1329 1329 1329 1329 1329 1328 1328 1328 1328 1328 1327 1327 1328 1328 1328 1328 1328 1327 1328 1328 1329 1330 1331 1332 1332 1333 1333 1334 1336 1337 1338 1339 1340 1341 1343 1344 1345 1345 1346 1347 1348 1348 1349 1351 1352 1353 1355 1356
1359 1358 1357 1356 1355 1353 1353 1352 1351 1350 1349 1348 1348 1347 1346 1345 1344 1343 1343 1342 1341 1340 1339 1338 1338 1337 1335 1334 1333 1333 1333 1332 1331 1330 1329 1329 1329 1329 1328 1328 1328 1328 1327 1327 1327 1326 1326 1326 1326 1325 1325 1326 1326 1327 1327 1326 1327 1327 1328 1328 1329 1330 1331 1332 1333 1333 1335 1336 1337 1338 1339 1340 1341 1342 1343 1344 1345 1346 1347 1347 1348 1349 1350 1352 1353 1355